Time,TemperatureF,DewpointF,PressureIn,WindDirection,WindDirectionDegrees,WindSpeedMPH,WindSpeedGustMPH,Humidity,HourlyPrecipIn,Conditions,Clouds,dailyrainin,SolarRadiationWatts/m^2,SoftwareType,DateUTC
2013-03-05 00:00:00,64.2,62.1,29.80,SSE,153,10.4,10.4,93,0.00,CLR,SKC,0.00,0.0,WeatherDisplay:10.37,2013-03-05 06:00:00,
2013-03-05 00:05:00,64.1,62.0,29.80,SE,145,8.1,8.1,93,0.00,CLR,SKC,0.00,0.0,WeatherDisplay:10.37,2013-03-05 06:05:00,
2013-03-05 00:10:00,64.1,62.0,29.80,SSE,150,10.4,10.4,93,0.00,CLR,SKC,0.00,0.0,WeatherDisplay:10.37,2013-03-05 06:10:00,
2013-03-05 00:15:00,64.1,62.0,29.80,SE,144,10.4,10.4,93,0.00,CLR,SKC,0.00,0.0,WeatherDisplay:10.37,2013-03-05 06:15:00,
2013-03-05 00:20:00,64.1,62.0,29.80,SW,219,11.5,11.5,93,0.00,CLR,SKC,0.00,0.0,WeatherDisplay:10.37,2013-03-05 06:20:00,
2013-03-05 00:25:00,64.1,62.0,29.80,East,98,9.2,9.2,93,0.00,CLR,SKC,0.00,0.0,WeatherDisplay:10.37,2013-03-05 06:25:00,
2013-03-05 00:30:00,64.1,62.0,29.80,SSW,205,11.5,11.5,93,0.00,CLR,SKC,0.00,0.0,WeatherDisplay:10.37,2013-03-05 06:30:00,
2013-03-05 00:35:00,64.1,62.0,29.80,NNE,16,9.2,9.2,93,0.00,CLR,SKC,0.00,0.0,WeatherDisplay:10.37,2013-03-05 06:35:00,
2013-03-05 00:40:00,64.1,62.0,29.80,SE,136,7.0,7.0,93,0.00,CLR,SKC,0.00,0.0,WeatherDisplay:10.37,2013-03-05 06:40:00,
2013-03-05 00:45:00,64.1,62.0,29.79,SSE,160,9.2,9.2,93,0.00,CLR,SKC,0.00,0.0,WeatherDisplay:10.37,2013-03-05 06:45:00,
2013-03-05 00:50:00,64.1,62.0,29.79,SW,220,11.5,11.5,93,0.00,CLR,SKC,0.00,0.0,WeatherDisplay:10.37,2013-03-05 06:50:00,
2013-03-05 00:55:00,64.1,62.0,29.79,WSW,243,6.0,6.0,93,0.00,CLR,SKC,0.00,0.0,WeatherDisplay:10.37,2013-03-05 06:55:00,
2013-03-05 01:00:00,64.1,62.0,29.78,SW,221,6.9,6.9,93,0.00,CLR,SKC,0.00,0.0,WeatherDisplay:10.37,2013-03-05 07:00:00,
2013-03-05 01:05:00,64.1,62.0,29.78,West,269,9.2,9.2,93,0.00,CLR,SKC,0.00,0.0,WeatherDisplay:10.37,2013-03-05 07:05:00,
2013-03-05 01:10:00,64.1,62.0,29.78,SE,138,9.2,9.2,93,0.00,CLR,SKC,0.00,0.0,WeatherDisplay:10.37,2013-03-05 07:10:00,
2013-03-05 01:15:00,64.2,62.1,29.78,WSW,239,11.5,11.5,93,0.00,CLR,SKC,0.00,0.0,WeatherDisplay:10.37,2013-03-05 07:15:00,
2013-03-05 01:20:00,64.2,62.1,29.78,ENE,76,16.1,16.1,93,0.00,CLR,SKC,0.00,0.0,WeatherDisplay:10.37,2013-03-05 07:20:00,
2013-03-05 01:25:00,64.2,62.1,29.78,South,178,11.5,11.5,93,0.00,CLR,SKC,0.00,0.0,WeatherDisplay:10.37,2013-03-05 07:25:00,
2013-03-05 01:30:00,64.2,62.1,29.78,South,171,11.5,11.5,93,0.00,CLR,SKC,0.00,0.0,WeatherDisplay:10.37,2013-03-05 07:30:00,
2013-03-05 01:35:00,64.3,62.2,29.78,SW,220,6.9,6.9,93,0.00,CLR,SKC,0.00,0.0,WeatherDisplay:10.37,2013-03-05 07:35:00,
2013-03-05 01:40:00,64.3,62.2,29.78,SSE,152,11.5,11.5,93,0.00,CLR,SKC,0.00,0.0,WeatherDisplay:10.37,2013-03-05 07:40:00,
2013-03-05 01:45:00,64.3,62.2,29.78,ESE,107,10.4,10.4,93,0.00,CLR,SKC,0.00,0.0,WeatherDisplay:10.37,2013-03-05 07:45:00,
2013-03-05 01:50:00,64.3,62.2,29.78,South,178,9.2,9.2,93,0.00,CLR,SKC,0.00,0.0,WeatherDisplay:10.37,2013-03-05 07:50:00,
2013-03-05 01:55:00,64.4,62.3,29.78,SSW,194,11.5,11.5,93,0.00,CLR,SKC,0.00,0.0,WeatherDisplay:10.37,2013-03-05 07:55:00,
2013-03-05 02:00:00,64.4,62.0,29.78,ESE,102,11.0,11.0,92,0.00,CLR,SKC,0.00,0.0,WeatherDisplay:10.37,2013-03-05 08:00:00,
2013-03-05 02:05:00,64.3,62.2,29.78,SSW,200,10.4,10.4,93,0.00,CLR,SKC,0.00,0.0,WeatherDisplay:10.37,2013-03-05 08:05:00,
2013-03-05 02:10:00,64.3,61.9,29.78,NE,51,6.9,6.9,92,0.00,CLR,SKC,0.00,0.0,WeatherDisplay:10.37,2013-03-05 08:10:00,
2013-03-05 02:15:00,64.3,61.9,29.79,SSE,148,7.0,7.0,92,0.00,CLR,SKC,0.00,0.0,WeatherDisplay:10.37,2013-03-05 08:15:00,
2013-03-05 02:20:00,64.3,61.9,29.79,SW,232,11.5,11.5,92,0.00,CLR,SKC,0.00,0.0,WeatherDisplay:10.37,2013-03-05 08:20:00,
2013-03-05 02:25:00,64.3,61.9,29.79,ESE,116,11.5,11.5,92,0.00,CLR,SKC,0.00,0.0,WeatherDisplay:10.37,2013-03-05 08:25:00,
2013-03-05 02:30:00,64.3,61.9,29.79,NE,40,4.6,4.6,92,0.00,CLR,SKC,0.00,0.0,WeatherDisplay:10.37,2013-03-05 08:30:00,
2013-03-05 02:35:00,64.3,61.9,29.79,WSW,254,10.4,10.4,92,0.00,CLR,SKC,0.00,0.0,WeatherDisplay:10.37,2013-03-05 08:35:00,
2013-03-05 02:40:00,64.3,61.9,29.79,South,188,10.4,10.4,92,0.00,CLR,SKC,0.00,0.0,WeatherDisplay:10.37,2013-03-05 08:40:00,
2013-03-05 02:45:00,64.3,61.9,29.79,WSW,253,5.8,5.8,92,0.00,CLR,SKC,0.00,0.0,WeatherDisplay:10.37,2013-03-05 08:45:00,
2013-03-05 02:50:00,64.2,61.8,29.79,ESE,105,5.8,5.8,92,0.00,CLR,SKC,0.00,0.0,WeatherDisplay:10.37,2013-03-05 08:50:00,
2013-03-05 02:55:00,64.2,61.8,29.79,West,279,9.2,9.2,92,0.00,CLR,SKC,0.00,0.0,WeatherDisplay:10.37,2013-03-05 08:55:00,
2013-03-05 03:00:00,64.2,61.8,29.80,SE,138,11.5,11.5,92,0.00,CLR,SKC,0.00,0.0,WeatherDisplay:10.37,2013-03-05 09:00:00,
2013-03-05 03:05:00,64.2,61.8,29.80,West,275,3.5,3.5,92,0.00,CLR,SKC,0.00,0.0,WeatherDisplay:10.37,2013-03-05 09:05:00,
2013-03-05 03:10:00,64.2,61.8,29.80,ENE,69,9.2,9.2,92,0.00,CLR,SKC,0.00,0.0,WeatherDisplay:10.37,2013-03-05 09:10:00,
2013-03-05 03:15:00,64.2,61.8,29.80,SE,128,4.6,4.6,92,0.00,CLR,SKC,0.00,0.0,WeatherDisplay:10.37,2013-03-05 09:15:00,
2013-03-05 03:20:00,64.1,61.7,29.80,SSE,157,6.9,6.9,92,0.00,CLR,SKC,0.00,0.0,WeatherDisplay:10.37,2013-03-05 09:20:00,
2013-03-05 03:25:00,64.1,61.7,29.80,South,188,4.6,4.6,92,0.00,CLR,SKC,0.00,0.0,WeatherDisplay:10.37,2013-03-05 09:25:00,
2013-03-05 03:30:00,64.1,61.7,29.79,SE,142,9.2,9.2,92,0.00,CLR,SKC,0.00,0.0,WeatherDisplay:10.37,2013-03-05 09:30:00,
2013-03-05 03:35:00,64.1,61.7,29.79,SSE,148,5.8,5.8,92,0.00,CLR,SKC,0.00,0.0,WeatherDisplay:10.37,2013-03-05 09:35:00,
2013-03-05 03:40:00,64.1,61.7,29.79,SSE,155,4.6,4.6,92,0.00,CLR,SKC,0.00,0.0,WeatherDisplay:10.37,2013-03-05 09:40:00,
2013-03-05 03:45:00,64.1,61.7,29.79,SE,125,4.6,4.6,92,0.00,CLR,SKC,0.00,0.0,WeatherDisplay:10.37,2013-03-05 09:45:00,
2013-03-05 03:50:00,64.1,61.7,29.79,WSW,256,10.4,10.4,92,0.00,CLR,SKC,0.00,0.0,WeatherDisplay:10.37,2013-03-05 09:50:00,
2013-03-05 03:55:00,64.1,61.7,29.79,ESE,107,7.0,7.0,92,0.00,CLR,SKC,0.00,0.0,WeatherDisplay:10.37,2013-03-05 09:55:00,
2013-03-05 04:00:00,64.1,61.7,29.78,WNW,294,6.9,6.9,92,0.00,CLR,SKC,0.00,0.0,WeatherDisplay:10.37,2013-03-05 10:00:00,
2013-03-05 04:05:00,64.1,61.7,29.78,SSW,196,12.7,12.7,92,0.00,CLR,SKC,0.00,0.0,WeatherDisplay:10.37,2013-03-05 10:05:00,
2013-03-05 04:10:00,64.1,61.7,29.78,SSE,148,6.9,6.9,92,0.00,CLR,SKC,0.00,0.0,WeatherDisplay:10.37,2013-03-05 10:10:00,
2013-03-05 04:15:00,64.1,61.7,29.78,SSW,198,9.2,9.2,92,0.00,CLR,SKC,0.00,0.0,WeatherDisplay:10.37,2013-03-05 10:15:00,
2013-03-05 04:20:00,64.1,61.7,29.78,SW,217,11.5,11.5,92,0.00,CLR,SKC,0.00,0.0,WeatherDisplay:10.37,2013-03-05 10:20:00,
2013-03-05 04:25:00,64.1,61.7,29.78,SW,223,9.2,9.2,92,0.00,CLR,SKC,0.00,0.0,WeatherDisplay:10.37,2013-03-05 10:25:00,
2013-03-05 04:30:00,64.1,61.7,29.79,SE,136,5.8,5.8,92,0.00,CLR,SKC,0.00,0.0,WeatherDisplay:10.37,2013-03-05 10:30:00,
2013-03-05 04:35:00,64.1,61.7,29.79,South,173,9.2,9.2,92,0.00,CLR,SKC,0.00,0.0,WeatherDisplay:10.37,2013-03-05 10:35:00,
2013-03-05 04:40:00,64.1,61.7,29.79,SSW,208,8.1,8.1,92,0.00,CLR,SKC,0.00,0.0,WeatherDisplay:10.37,2013-03-05 10:40:00,
2013-03-05 04:45:00,64.1,61.7,29.80,South,169,10.4,10.4,92,0.00,CLR,SKC,0.00,0.0,WeatherDisplay:10.37,2013-03-05 10:45:00,
2013-03-05 04:50:00,64.1,61.7,29.80,SE,146,5.0,5.0,92,0.00,CLR,SKC,0.00,0.0,WeatherDisplay:10.37,2013-03-05 10:50:00,
2013-03-05 04:55:00,64.1,61.7,29.80,ESE,118,10.4,10.4,92,0.00,CLR,SKC,0.00,0.0,WeatherDisplay:10.37,2013-03-05 10:55:00,
2013-03-05 05:00:00,64.1,61.7,29.80,SE,133,5.8,5.8,92,0.00,CLR,SKC,0.00,0.0,WeatherDisplay:10.37,2013-03-05 11:00:00,
2013-03-05 05:05:00,64.1,61.7,29.80,SSW,207,10.4,10.4,92,0.00,CLR,SKC,0.00,0.0,WeatherDisplay:10.37,2013-03-05 11:05:00,
2013-03-05 05:10:00,64.1,61.7,29.80,SSE,153,6.0,6.0,92,0.00,CLR,SKC,0.00,0.0,WeatherDisplay:10.37,2013-03-05 11:10:00,
2013-03-05 05:15:00,64.1,61.7,29.80,SW,233,5.8,5.8,92,0.00,CLR,SKC,0.00,0.0,WeatherDisplay:10.37,2013-03-05 11:15:00,
2013-03-05 05:20:00,64.0,61.6,29.80,SW,225,5.8,5.8,92,0.00,CLR,SKC,0.00,0.0,WeatherDisplay:10.37,2013-03-05 11:20:00,
2013-03-05 05:25:00,64.0,61.6,29.80,ENE,71,5.8,5.8,92,0.00,CLR,SKC,0.00,0.0,WeatherDisplay:10.37,2013-03-05 11:25:00,
2013-03-05 05:30:00,64.0,61.6,29.81,South,181,3.5,3.5,92,0.00,CLR,SKC,0.00,0.0,WeatherDisplay:10.37,2013-03-05 11:30:00,
2013-03-05 05:35:00,64.0,61.6,29.81,SSW,207,3.5,3.5,92,0.00,CLR,SKC,0.00,0.0,WeatherDisplay:10.37,2013-03-05 11:35:00,
2013-03-05 05:40:00,63.9,61.5,29.81,ESE,117,6.9,6.9,92,0.00,CLR,SKC,0.00,0.0,WeatherDisplay:10.37,2013-03-05 11:40:00,
2013-03-05 05:45:00,63.9,61.5,29.82,SSW,207,10.0,10.0,92,0.00,CLR,SKC,0.00,0.0,WeatherDisplay:10.37,2013-03-05 11:45:00,
2013-03-05 05:50:00,63.9,61.5,29.82,East,80,3.5,3.5,92,0.00,CLR,SKC,0.00,0.0,WeatherDisplay:10.37,2013-03-05 11:50:00,
2013-03-05 05:55:00,63.9,61.8,29.82,SSW,202,4.0,4.0,93,0.00,CLR,SKC,0.00,0.0,WeatherDisplay:10.37,2013-03-05 11:55:00,
2013-03-05 06:00:00,63.8,61.7,29.82,NNE,28,5.8,5.8,93,0.00,CLR,SKC,0.00,0.0,WeatherDisplay:10.37,2013-03-05 12:00:00,
2013-03-05 06:05:00,63.8,61.7,29.82,WSW,247,3.5,3.5,93,0.00,CLR,SKC,0.00,0.0,WeatherDisplay:10.37,2013-03-05 12:05:00,
2013-03-05 06:10:00,63.8,61.7,29.82,SE,146,3.5,3.5,93,0.00,CLR,SKC,0.00,0.0,WeatherDisplay:10.37,2013-03-05 12:10:00,
2013-03-05 06:15:00,63.8,61.7,29.84,SW,228,3.5,3.5,93,0.00,CLR,SKC,0.00,0.0,WeatherDisplay:10.37,2013-03-05 12:15:00,
2013-03-05 06:20:00,63.7,61.6,29.84,ESE,122,3.5,3.5,93,0.00,CLR,SKC,0.00,0.0,WeatherDisplay:10.37,2013-03-05 12:20:00,
2013-03-05 06:25:00,63.7,61.6,29.84,SSW,197,3.5,3.5,93,0.00,CLR,SKC,0.00,0.0,WeatherDisplay:10.37,2013-03-05 12:25:00,
2013-03-05 06:30:00,63.6,61.5,29.84,SSW,202,1.1,1.1,93,0.00,CLR,SKC,0.00,0.0,WeatherDisplay:10.37,2013-03-05 12:30:00,
2013-03-05 06:35:00,63.6,61.5,29.84,SW,219,3.5,3.5,93,0.00,CLR,SKC,0.00,0.0,WeatherDisplay:10.37,2013-03-05 12:35:00,
2013-03-05 06:40:00,63.5,61.4,29.84,South,184,3.5,3.5,93,0.00,CLR,SKC,0.00,0.0,WeatherDisplay:10.37,2013-03-05 12:40:00,
2013-03-05 06:45:00,63.4,61.3,29.85,WSW,258,1.1,1.1,93,0.00,CLR,SKC,0.00,0.0,WeatherDisplay:10.37,2013-03-05 12:45:00,
2013-03-05 06:50:00,63.7,61.9,29.85,NW,321,24.2,24.2,94,0.00,CLR,SKC,0.00,0.0,WeatherDisplay:10.37,2013-03-05 12:50:00,
2013-03-05 06:55:00,63.8,61.7,29.85,North,355,19.6,19.6,93,0.00,CLR,SKC,0.00,0.0,WeatherDisplay:10.37,2013-03-05 12:55:00,
2013-03-05 07:00:00,64.6,62.2,29.93,West,279,20.0,20.0,92,0.00,CLR,SKC,0.00,0.0,WeatherDisplay:10.37,2013-03-05 13:00:00,
2013-03-05 07:05:00,64.8,61.8,29.93,NE,53,15.0,15.0,90,0.00,CLR,SKC,0.00,7.0,WeatherDisplay:10.37,2013-03-05 13:05:00,
2013-03-05 07:10:00,65.1,62.1,29.93,NW,324,23.0,23.0,90,0.00,CLR,SKC,0.00,0.0,WeatherDisplay:10.37,2013-03-05 13:10:00,
2013-03-05 07:15:00,65.0,61.4,29.99,NW,320,10.0,10.0,88,0.00,CLR,SKC,0.00,16.0,WeatherDisplay:10.37,2013-03-05 13:15:00,
2013-03-05 07:20:00,64.7,61.4,29.99,NNW,327,15.0,15.0,89,0.00,CLR,SKC,0.00,14.0,WeatherDisplay:10.37,2013-03-05 13:20:00,
2013-03-05 07:25:00,64.5,61.2,29.99,WNW,301,12.0,12.0,89,0.00,CLR,SKC,0.00,28.0,WeatherDisplay:10.37,2013-03-05 13:25:00,
2013-03-05 07:30:00,64.3,61.0,29.99,NW,320,10.4,10.4,89,0.00,CLR,SKC,0.00,35.0,WeatherDisplay:10.37,2013-03-05 13:30:00,
2013-03-05 07:35:00,64.2,60.9,29.99,NW,323,10.4,10.4,89,0.00,CLR,SKC,0.00,37.0,WeatherDisplay:10.37,2013-03-05 13:35:00,
2013-03-05 07:40:00,64.2,61.2,29.99,NNE,15,11.5,11.5,90,0.00,CLR,SKC,0.00,40.0,WeatherDisplay:10.37,2013-03-05 13:40:00,
2013-03-05 07:45:00,64.3,61.3,29.99,NNE,22,10.4,10.4,90,0.00,CLR,SKC,0.00,163.0,WeatherDisplay:10.37,2013-03-05 13:45:00,
2013-03-05 07:50:00,64.4,61.1,29.99,NNW,346,10.4,10.4,89,0.00,CLR,SKC,0.00,109.0,WeatherDisplay:10.37,2013-03-05 13:50:00,
2013-03-05 07:55:00,64.5,61.2,29.99,NNE,15,5.8,5.8,89,0.00,CLR,SKC,0.00,63.0,WeatherDisplay:10.37,2013-03-05 13:55:00,
2013-03-05 08:00:00,64.5,61.2,30.01,North,360,11.0,11.0,89,0.00,CLR,SKC,0.00,95.0,WeatherDisplay:10.37,2013-03-05 14:00:00,
2013-03-05 08:05:00,64.5,61.2,30.01,NE,49,6.9,6.9,89,0.00,CLR,SKC,0.00,239.0,WeatherDisplay:10.37,2013-03-05 14:05:00,
2013-03-05 08:10:00,64.5,61.2,30.01,NE,37,10.4,10.4,89,0.00,CLR,SKC,0.00,160.0,WeatherDisplay:10.37,2013-03-05 14:10:00,
2013-03-05 08:15:00,64.6,61.3,30.01,NE,52,10.0,10.0,89,0.00,CLR,SKC,0.00,318.0,WeatherDisplay:10.37,2013-03-05 14:15:00,
2013-03-05 08:20:00,64.7,61.4,30.01,NNE,26,11.5,11.5,89,0.00,CLR,SKC,0.00,127.0,WeatherDisplay:10.37,2013-03-05 14:20:00,
2013-03-05 08:25:00,64.9,61.6,30.01,NE,53,8.1,8.1,89,0.00,CLR,SKC,0.00,339.0,WeatherDisplay:10.37,2013-03-05 14:25:00,
2013-03-05 08:30:00,65.2,61.9,30.01,NE,36,6.9,6.9,89,0.00,CLR,SKC,0.00,390.0,WeatherDisplay:10.37,2013-03-05 14:30:00,
2013-03-05 08:35:00,65.6,61.9,30.01,NE,45,10.4,10.4,88,0.00,CLR,SKC,0.00,376.0,WeatherDisplay:10.37,2013-03-05 14:35:00,
2013-03-05 08:40:00,66.1,62.1,30.01,NE,35,11.5,11.5,87,0.00,CLR,SKC,0.00,436.0,WeatherDisplay:10.37,2013-03-05 14:40:00,
2013-03-05 08:45:00,66.7,62.4,30.02,NE,34,10.4,10.4,86,0.00,CLR,SKC,0.00,406.0,WeatherDisplay:10.37,2013-03-05 14:45:00,
2013-03-05 08:50:00,67.3,62.6,30.02,North,9,10.4,10.4,85,0.00,CLR,SKC,0.00,388.0,WeatherDisplay:10.37,2013-03-05 14:50:00,
2013-03-05 08:55:00,67.8,62.4,30.02,NE,35,11.5,11.5,83,0.00,CLR,SKC,0.00,499.0,WeatherDisplay:10.37,2013-03-05 14:55:00,
2013-03-05 09:00:00,68.2,62.8,30.03,ENE,70,10.4,10.4,83,0.00,CLR,SKC,0.00,531.0,WeatherDisplay:10.37,2013-03-05 15:00:00,
2013-03-05 09:05:00,68.4,62.7,30.03,NW,315,12.7,12.7,82,0.00,CLR,SKC,0.00,548.0,WeatherDisplay:10.37,2013-03-05 15:05:00,
2013-03-05 09:10:00,65.1,55.1,30.03,NNE,19,19.6,19.6,70,0.00,CLR,SKC,0.00,72.0,WeatherDisplay:10.37,2013-03-05 15:10:00,
2013-03-05 09:15:00,61.2,51.7,30.06,NNE,30,19.6,19.6,71,0.00,CLR,SKC,0.00,49.0,WeatherDisplay:10.37,2013-03-05 15:15:00,
2013-03-05 09:20:00,60.1,51.4,30.06,North,5,18.4,18.4,73,0.00,CLR,SKC,0.00,100.0,WeatherDisplay:10.37,2013-03-05 15:20:00,
2013-03-05 09:25:00,59.5,50.8,30.06,North,350,20.0,20.0,73,0.00,CLR,SKC,0.00,60.0,WeatherDisplay:10.37,2013-03-05 15:25:00,
2013-03-05 09:30:00,59.2,50.2,30.07,NNW,344,19.6,19.6,72,0.00,CLR,SKC,0.00,69.0,WeatherDisplay:10.37,2013-03-05 15:30:00,
2013-03-05 09:35:00,58.9,49.1,30.07,NW,317,21.9,21.9,70,0.00,CLR,SKC,0.00,65.0,WeatherDisplay:10.37,2013-03-05 15:35:00,
2013-03-05 09:40:00,58.7,48.9,30.07,NNW,330,20.7,20.7,70,0.00,CLR,SKC,0.00,121.0,WeatherDisplay:10.37,2013-03-05 15:40:00,
2013-03-05 09:45:00,58.5,48.4,30.08,NNE,19,20.7,20.7,69,0.00,CLR,SKC,0.00,185.0,WeatherDisplay:10.37,2013-03-05 15:45:00,
2013-03-05 09:50:00,58.4,47.9,30.08,North,5,18.4,18.4,68,0.00,CLR,SKC,0.00,178.0,WeatherDisplay:10.37,2013-03-05 15:50:00,
2013-03-05 09:55:00,58.3,47.8,30.08,NNW,329,19.6,19.6,68,0.00,CLR,SKC,0.00,116.0,WeatherDisplay:10.37,2013-03-05 15:55:00,
2013-03-05 10:00:00,58.1,48.0,30.10,NNE,19,19.6,19.6,69,0.00,CLR,SKC,0.00,123.0,WeatherDisplay:10.37,2013-03-05 16:00:00,
2013-03-05 10:05:00,57.9,47.8,30.10,NNE,15,15.0,15.0,69,0.00,SKC,,0.00,178.0,WeatherDisplay:10.37,2013-03-05 16:05:00,
2013-03-05 10:10:00,57.8,47.3,30.10,NNE,21,19.6,19.6,68,0.00,SKC,,0.00,169.0,WeatherDisplay:10.37,2013-03-05 16:10:00,
2013-03-05 10:15:00,57.9,47.0,30.11,NNW,348,19.6,19.6,67,0.00,SKC,,0.00,176.0,WeatherDisplay:10.37,2013-03-05 16:15:00,
2013-03-05 10:20:00,57.7,46.8,30.11,North,350,15.0,15.0,67,0.00,SKC,,0.00,114.0,WeatherDisplay:10.37,2013-03-05 16:20:00,
2013-03-05 10:25:00,57.6,46.7,30.11,NNE,17,15.0,15.0,67,0.00,SKC,,0.00,176.0,WeatherDisplay:10.37,2013-03-05 16:25:00,
2013-03-05 10:30:00,57.5,46.2,30.12,North,5,17.3,17.3,66,0.00,SKC,,0.00,151.0,WeatherDisplay:10.37,2013-03-05 16:30:00,
2013-03-05 10:35:00,57.4,46.1,30.12,North,5,20.7,20.7,66,0.00,SKC,,0.00,116.0,WeatherDisplay:10.37,2013-03-05 16:35:00,
2013-03-05 10:40:00,57.4,46.1,30.12,NNE,26,17.3,17.3,66,0.00,SKC,,0.00,169.0,WeatherDisplay:10.37,2013-03-05 16:40:00,
2013-03-05 10:45:00,57.6,46.7,30.13,NNW,339,13.8,13.8,67,0.00,SKC,,0.00,120.0,WeatherDisplay:10.37,2013-03-05 16:45:00,
2013-03-05 10:50:00,57.7,46.4,30.13,North,5,13.8,13.8,66,0.00,SKC,,0.00,104.0,WeatherDisplay:10.37,2013-03-05 16:50:00,
2013-03-05 10:55:00,57.8,46.5,30.13,NNE,21,17.3,17.3,66,0.00,SKC,,0.00,163.0,WeatherDisplay:10.37,2013-03-05 16:55:00,
2013-03-05 11:00:00,58.1,46.8,30.14,North,355,13.8,13.8,66,0.00,SKC,,0.00,123.0,WeatherDisplay:10.37,2013-03-05 17:00:00,
2013-03-05 11:05:00,58.3,47.0,30.14,NNE,16,18.4,18.4,66,0.00,SKC,,0.00,137.0,WeatherDisplay:10.37,2013-03-05 17:05:00,
2013-03-05 11:10:00,58.4,47.1,30.14,NNE,24,17.3,17.3,66,0.00,SKC,,0.00,163.0,WeatherDisplay:10.37,2013-03-05 17:10:00,
2013-03-05 11:15:00,58.6,47.3,30.15,NNE,25,17.3,17.3,66,0.00,SKC,,0.00,258.0,WeatherDisplay:10.37,2013-03-05 17:15:00,
2013-03-05 11:20:00,58.8,46.2,30.15,NNW,333,18.4,18.4,63,0.00,SKC,,0.00,211.0,WeatherDisplay:10.37,2013-03-05 17:20:00,
2013-03-05 11:25:00,59.2,47.0,30.15,NNE,24,18.4,18.4,64,0.00,CLR,SKC,0.00,290.0,WeatherDisplay:10.37,2013-03-05 17:25:00,
2013-03-05 11:30:00,59.2,46.2,30.15,NNE,33,16.1,16.1,62,0.00,CLR,SKC,0.00,183.0,WeatherDisplay:10.37,2013-03-05 17:30:00,
2013-03-05 11:35:00,59.4,46.8,30.15,NNE,15,15.0,15.0,63,0.00,SKC,,0.00,227.0,WeatherDisplay:10.37,2013-03-05 17:35:00,
2013-03-05 11:40:00,59.7,46.7,30.15,NNW,341,18.4,18.4,62,0.00,SKC,,0.00,183.0,WeatherDisplay:10.37,2013-03-05 17:40:00,
2013-03-05 11:45:00,59.9,46.8,30.16,North,355,16.1,16.1,62,0.00,SKC,,0.00,229.0,WeatherDisplay:10.37,2013-03-05 17:45:00,
2013-03-05 11:50:00,60.2,47.1,30.16,NE,44,17.3,17.3,62,0.00,SKC,,0.00,255.0,WeatherDisplay:10.37,2013-03-05 17:50:00,
2013-03-05 11:55:00,60.7,47.2,30.16,NNE,32,20.0,20.0,61,0.00,SKC,,0.00,244.0,WeatherDisplay:10.37,2013-03-05 17:55:00,
2013-03-05 12:00:00,61.1,46.7,30.16,NNE,29,15.0,15.0,59,0.00,SKC,,0.00,260.0,WeatherDisplay:10.37,2013-03-05 18:00:00,
2013-03-05 12:05:00,61.3,46.4,30.16,NNE,17,13.8,13.8,58,0.00,SKC,,0.00,244.0,WeatherDisplay:10.37,2013-03-05 18:05:00,
2013-03-05 12:10:00,61.6,47.6,30.16,North,11,11.5,11.5,60,0.00,SKC,,0.00,230.0,WeatherDisplay:10.37,2013-03-05 18:10:00,
2013-03-05 12:15:00,61.8,47.3,30.17,NNW,339,12.7,12.7,59,0.00,SKC,,0.00,227.0,WeatherDisplay:10.37,2013-03-05 18:15:00,
2013-03-05 12:20:00,62.0,46.6,30.17,North,355,13.8,13.8,57,0.00,SKC,,0.00,234.0,WeatherDisplay:10.37,2013-03-05 18:20:00,
2013-03-05 12:25:00,62.3,46.4,30.17,NNW,337,11.5,11.5,56,0.00,SKC,,0.00,218.0,WeatherDisplay:10.37,2013-03-05 18:25:00,
2013-03-05 12:30:00,62.8,47.8,30.17,NNE,22,15.0,15.0,58,0.00,SKC,,0.00,232.0,WeatherDisplay:10.37,2013-03-05 18:30:00,
2013-03-05 12:35:00,63.1,46.7,30.17,NE,40,11.5,11.5,55,0.00,SKC,,0.00,248.0,WeatherDisplay:10.37,2013-03-05 18:35:00,
2013-03-05 12:40:00,63.4,46.9,30.17,NNE,31,11.5,11.5,55,0.00,SKC,,0.00,265.0,WeatherDisplay:10.37,2013-03-05 18:40:00,
2013-03-05 12:45:00,63.6,46.1,30.16,NNW,336,10.0,10.0,53,0.00,SKC,,0.00,248.0,WeatherDisplay:10.37,2013-03-05 18:45:00,
2013-03-05 12:50:00,63.8,46.3,30.16,NNW,340,12.7,12.7,53,0.00,SKC,,0.00,306.0,WeatherDisplay:10.37,2013-03-05 18:50:00,
2013-03-05 12:55:00,64.1,46.1,30.16,North,5,11.5,11.5,52,0.00,SKC,,0.00,306.0,WeatherDisplay:10.37,2013-03-05 18:55:00,
2013-03-05 13:00:00,64.2,46.2,30.16,North,11,11.5,11.5,52,0.00,SKC,,0.00,292.0,WeatherDisplay:10.37,2013-03-05 19:00:00,
2013-03-05 13:05:00,64.3,45.8,30.16,NW,326,11.5,11.5,51,0.00,SKC,,0.00,315.0,WeatherDisplay:10.37,2013-03-05 19:05:00,
2013-03-05 13:10:00,64.5,46.5,30.17,WNW,282,11.5,11.5,52,0.00,SKC,,0.00,306.0,WeatherDisplay:10.37,2013-03-05 19:10:00,
2013-03-05 13:15:00,64.8,46.2,30.17,North,11,13.8,13.8,51,0.00,SKC,,0.00,341.0,WeatherDisplay:10.37,2013-03-05 19:15:00,
2013-03-05 13:20:00,65.2,45.5,30.17,NW,324,13.8,13.8,49,0.00,SKC,,0.00,339.0,WeatherDisplay:10.37,2013-03-05 19:20:00,
2013-03-05 13:25:00,65.6,45.4,30.17,NNW,333,13.8,13.8,48,0.00,SKC,,0.00,311.0,WeatherDisplay:10.37,2013-03-05 19:25:00,
2013-03-05 13:30:00,65.9,46.2,30.16,North,360,12.7,12.7,49,0.00,SKC,,0.00,823.0,WeatherDisplay:10.37,2013-03-05 19:30:00,
2013-03-05 13:35:00,66.5,44.5,30.16,NW,319,18.4,18.4,45,0.00,SKC,,0.00,814.0,WeatherDisplay:10.37,2013-03-05 19:35:00,
2013-03-05 13:40:00,66.6,45.2,30.16,NNW,341,19.6,19.6,46,0.00,SKC,,0.00,798.0,WeatherDisplay:10.37,2013-03-05 19:40:00,
2013-03-05 13:45:00,66.7,46.4,30.16,NW,311,15.0,15.0,48,0.00,SKC,,0.00,796.0,WeatherDisplay:10.37,2013-03-05 19:45:00,
2013-03-05 13:50:00,66.8,45.9,30.16,NW,317,16.1,16.1,47,0.00,SKC,,0.00,758.0,WeatherDisplay:10.37,2013-03-05 19:50:00,
2013-03-05 13:55:00,66.8,45.3,30.16,NW,304,19.6,19.6,46,0.00,SKC,,0.00,786.0,WeatherDisplay:10.37,2013-03-05 19:55:00,
2013-03-05 14:00:00,66.7,45.3,30.16,NNW,341,16.1,16.1,46,0.00,SKC,,0.00,735.0,WeatherDisplay:10.37,2013-03-05 20:00:00,
2013-03-05 14:05:00,66.8,44.2,30.16,North,360,20.7,20.7,44,0.00,SKC,,0.00,689.0,WeatherDisplay:10.37,2013-03-05 20:05:00,
2013-03-05 14:10:00,66.8,43.6,30.16,North,5,19.6,19.6,43,0.00,SKC,,0.00,733.0,WeatherDisplay:10.37,2013-03-05 20:10:00,
2013-03-05 14:15:00,66.7,44.7,30.16,NNW,344,15.0,15.0,45,0.00,SKC,,0.00,726.0,WeatherDisplay:10.37,2013-03-05 20:15:00,
2013-03-05 14:20:00,67.1,46.2,30.16,NW,320,15.0,15.0,47,0.00,SKC,,0.00,705.0,WeatherDisplay:10.37,2013-03-05 20:20:00,
2013-03-05 14:25:00,66.7,45.3,30.16,North,360,17.3,17.3,46,0.00,SKC,,0.00,696.0,WeatherDisplay:10.37,2013-03-05 20:25:00,
2013-03-05 14:30:00,67.1,43.8,30.16,NNW,344,16.1,16.1,43,0.00,SKC,,0.00,717.0,WeatherDisplay:10.37,2013-03-05 20:30:00,
2013-03-05 14:35:00,67.2,43.9,30.16,North,360,18.4,18.4,43,0.00,SKC,,0.00,744.0,WeatherDisplay:10.37,2013-03-05 20:35:00,
2013-03-05 14:40:00,67.3,45.2,30.16,NW,316,12.7,12.7,45,0.00,SKC,,0.00,657.0,WeatherDisplay:10.37,2013-03-05 20:40:00,
2013-03-05 14:45:00,67.0,45.5,30.16,NNW,331,17.3,17.3,46,0.00,SKC,,0.00,719.0,WeatherDisplay:10.37,2013-03-05 20:45:00,
2013-03-05 14:50:00,67.0,44.9,30.16,NW,319,13.8,13.8,45,0.00,SKC,,0.00,698.0,WeatherDisplay:10.37,2013-03-05 20:50:00,
2013-03-05 14:55:00,67.0,43.1,30.16,NNW,344,17.3,17.3,42,0.00,SKC,,0.00,657.0,WeatherDisplay:10.37,2013-03-05 20:55:00,
2013-03-05 15:00:00,66.9,42.4,30.16,NNW,327,19.0,19.0,41,0.00,SKC,,0.00,636.0,WeatherDisplay:10.37,2013-03-05 21:00:00,
2013-03-05 15:05:00,67.0,41.2,30.16,NNE,31,19.0,19.0,39,0.00,CLR,SKC,0.00,629.0,WeatherDisplay:10.37,2013-03-05 21:05:00,
2013-03-05 15:10:00,66.8,41.0,30.16,North,350,13.8,13.8,39,0.00,CLR,SKC,0.00,626.0,WeatherDisplay:10.37,2013-03-05 21:10:00,
2013-03-05 15:15:00,66.9,43.0,30.16,North,9,13.8,13.8,42,0.00,CLR,SKC,0.00,497.0,WeatherDisplay:10.37,2013-03-05 21:15:00,
2013-03-05 15:20:00,66.8,41.7,30.16,NNW,347,12.7,12.7,40,0.00,CLR,SKC,0.00,584.0,WeatherDisplay:10.37,2013-03-05 21:20:00,
2013-03-05 15:25:00,66.7,42.2,30.16,North,5,16.1,16.1,41,0.00,CLR,SKC,0.00,566.0,WeatherDisplay:10.37,2013-03-05 21:25:00,
2013-03-05 15:30:00,66.5,42.1,30.16,NW,315,16.1,16.1,41,0.00,CLR,SKC,0.00,483.0,WeatherDisplay:10.37,2013-03-05 21:30:00,
2013-03-05 15:35:00,66.5,42.7,30.16,NNW,340,17.3,17.3,42,0.00,CLR,SKC,0.00,413.0,WeatherDisplay:10.37,2013-03-05 21:35:00,
2013-03-05 15:40:00,66.5,42.7,30.17,NNW,327,17.3,17.3,42,0.00,CLR,SKC,0.00,420.0,WeatherDisplay:10.37,2013-03-05 21:40:00,
2013-03-05 15:45:00,66.6,44.0,30.17,NW,317,12.7,12.7,44,0.00,CLR,SKC,0.00,431.0,WeatherDisplay:10.37,2013-03-05 21:45:00,
2013-03-05 15:50:00,66.7,42.2,30.17,WNW,294,13.0,13.0,41,0.00,CLR,SKC,0.00,348.0,WeatherDisplay:10.37,2013-03-05 21:50:00,
2013-03-05 15:55:00,66.5,43.9,30.17,NNW,347,15.0,15.0,44,0.00,CLR,SKC,0.00,367.0,WeatherDisplay:10.37,2013-03-05 21:55:00,
2013-03-05 16:00:00,66.7,42.9,30.17,North,360,11.5,11.5,42,0.00,CLR,SKC,0.00,325.0,WeatherDisplay:10.37,2013-03-05 22:00:00,
2013-03-05 16:05:00,66.4,42.0,30.17,NW,326,15.0,15.0,41,0.00,CLR,SKC,0.00,262.0,WeatherDisplay:10.37,2013-03-05 22:05:00,
2013-03-05 16:10:00,66.3,42.5,30.17,NW,313,19.6,19.6,42,0.00,CLR,SKC,0.00,237.0,WeatherDisplay:10.37,2013-03-05 22:10:00,
2013-03-05 16:15:00,66.2,42.4,30.17,NNW,336,15.0,15.0,42,0.00,CLR,SKC,0.00,218.0,WeatherDisplay:10.37,2013-03-05 22:15:00,
2013-03-05 16:20:00,66.2,41.2,30.17,NNW,327,16.1,16.1,40,0.00,CLR,SKC,0.00,199.0,WeatherDisplay:10.37,2013-03-05 22:20:00,
2013-03-05 16:25:00,66.1,41.1,30.17,NNW,336,15.0,15.0,40,0.00,CLR,SKC,0.00,188.0,WeatherDisplay:10.37,2013-03-05 22:25:00,
2013-03-05 16:30:00,66.0,40.3,30.17,NNW,327,11.5,11.5,39,0.00,CLR,SKC,0.00,176.0,WeatherDisplay:10.37,2013-03-05 22:30:00,
2013-03-05 16:35:00,66.0,41.6,30.17,NW,325,10.4,10.4,41,0.00,CLR,SKC,0.00,160.0,WeatherDisplay:10.37,2013-03-05 22:35:00,
2013-03-05 16:40:00,66.0,40.3,30.18,NNW,327,11.5,11.5,39,0.00,CLR,SKC,0.00,163.0,WeatherDisplay:10.37,2013-03-05 22:40:00,
2013-03-05 16:45:00,66.1,41.7,30.18,NNW,327,13.8,13.8,41,0.00,CLR,SKC,0.00,165.0,WeatherDisplay:10.37,2013-03-05 22:45:00,
2013-03-05 16:50:00,66.2,42.4,30.18,North,355,6.9,6.9,42,0.00,CLR,SKC,0.00,199.0,WeatherDisplay:10.37,2013-03-05 22:50:00,
2013-03-05 16:55:00,66.2,39.8,30.18,NNE,13,16.1,16.1,38,0.00,CLR,SKC,0.00,185.0,WeatherDisplay:10.37,2013-03-05 22:55:00,
2013-03-05 17:00:00,66.3,40.6,30.18,NNW,333,13.8,13.8,39,0.00,CLR,SKC,0.00,195.0,WeatherDisplay:10.37,2013-03-05 23:00:00,
2013-03-05 17:05:00,66.3,42.5,30.18,NW,323,10.4,10.4,42,0.00,CLR,SKC,0.00,174.0,WeatherDisplay:10.37,2013-03-05 23:05:00,
2013-03-05 17:10:00,66.2,43.6,30.18,NNW,340,11.5,11.5,44,0.00,CLR,SKC,0.00,146.0,WeatherDisplay:10.37,2013-03-05 23:10:00,
2013-03-05 17:15:00,66.3,42.5,30.18,NNW,341,9.2,9.2,42,0.00,CLR,SKC,0.00,220.0,WeatherDisplay:10.37,2013-03-05 23:15:00,
2013-03-05 17:20:00,66.4,43.2,30.18,NW,315,9.2,9.2,43,0.00,CLR,SKC,0.00,229.0,WeatherDisplay:10.37,2013-03-05 23:20:00,
2013-03-05 17:25:00,66.6,41.5,30.18,NNW,347,12.7,12.7,40,0.00,CLR,SKC,0.00,176.0,WeatherDisplay:10.37,2013-03-05 23:25:00,
2013-03-05 17:30:00,66.7,40.3,30.18,North,5,16.1,16.1,38,0.00,CLR,SKC,0.00,139.0,WeatherDisplay:10.37,2013-03-05 23:30:00,
2013-03-05 17:35:00,66.8,39.7,30.18,North,349,9.2,9.2,37,0.00,CLR,SKC,0.00,163.0,WeatherDisplay:10.37,2013-03-05 23:35:00,
2013-03-05 17:40:00,66.8,38.3,30.18,NNW,344,10.4,10.4,35,0.00,CLR,SKC,0.00,135.0,WeatherDisplay:10.37,2013-03-05 23:40:00,
2013-03-05 17:45:00,66.7,39.6,30.18,NNW,335,12.0,12.0,37,0.00,CLR,SKC,0.00,54.0,WeatherDisplay:10.37,2013-03-05 23:45:00,
2013-03-05 17:50:00,66.3,42.5,30.18,NW,320,10.4,10.4,42,0.00,CLR,SKC,0.00,70.0,WeatherDisplay:10.37,2013-03-05 23:50:00,
2013-03-05 17:55:00,66.1,42.9,30.18,NNW,347,6.9,6.9,43,0.00,CLR,SKC,0.00,76.0,WeatherDisplay:10.37,2013-03-05 23:55:00,
2013-03-05 18:00:00,65.9,42.8,30.19,NW,323,6.0,6.4,43,0.00,CLR,SKC,0.00,42.0,WeatherDisplay:10.37,2013-03-06 00:00:00,
2013-03-05 18:05:00,65.7,42.6,30.19,NNW,337,6.9,6.9,43,0.00,CLR,SKC,0.00,30.0,WeatherDisplay:10.37,2013-03-06 00:05:00,
2013-03-05 18:10:00,65.5,43.0,30.19,NW,319,9.2,9.2,44,0.00,CLR,SKC,0.00,30.0,WeatherDisplay:10.37,2013-03-06 00:10:00,
2013-03-05 18:15:00,65.5,41.8,30.19,North,355,11.5,11.5,42,0.00,CLR,SKC,0.00,30.0,WeatherDisplay:10.37,2013-03-06 00:15:00,
2013-03-05 18:20:00,65.6,38.6,30.19,NNE,24,9.2,9.2,37,0.00,CLR,SKC,0.00,19.0,WeatherDisplay:10.37,2013-03-06 00:20:00,
2013-03-05 18:25:00,65.6,38.6,30.20,North,355,9.2,9.2,37,0.00,CLR,SKC,0.00,11.0,WeatherDisplay:10.37,2013-03-06 00:25:00,
2013-03-05 18:30:00,65.4,41.1,30.20,North,355,9.2,9.2,41,0.00,CLR,SKC,0.00,5.0,WeatherDisplay:10.37,2013-03-06 00:30:00,
2013-03-05 18:35:00,65.0,43.1,30.20,NW,304,10.4,10.4,45,0.00,CLR,SKC,0.00,0.0,WeatherDisplay:10.37,2013-03-06 00:35:00,
2013-03-05 18:40:00,64.9,42.5,30.20,NNW,331,6.9,6.9,44,0.00,CLR,SKC,0.00,0.0,WeatherDisplay:10.37,2013-03-06 00:40:00,
2013-03-05 18:45:00,64.8,42.4,30.21,NNW,327,6.9,6.9,44,0.00,CLR,SKC,0.00,0.0,WeatherDisplay:10.37,2013-03-06 00:45:00,
2013-03-05 18:50:00,64.7,42.3,30.21,NNW,332,10.4,10.4,44,0.00,CLR,SKC,0.00,0.0,WeatherDisplay:10.37,2013-03-06 00:50:00,
2013-03-05 18:55:00,64.6,41.6,30.21,NNW,348,11.0,11.0,43,0.00,CLR,SKC,0.00,0.0,WeatherDisplay:10.37,2013-03-06 00:55:00,
2013-03-05 19:00:00,64.5,42.1,30.21,NW,325,11.5,11.5,44,0.00,CLR,SKC,0.00,0.0,WeatherDisplay:10.37,2013-03-06 01:00:00,
2013-03-05 19:05:00,64.3,41.3,30.21,NNW,348,9.2,9.2,43,0.00,CLR,SKC,0.00,0.0,WeatherDisplay:10.37,2013-03-06 01:05:00,
2013-03-05 19:10:00,64.3,41.3,30.21,NNW,332,10.4,10.4,43,0.00,CLR,SKC,0.00,0.0,WeatherDisplay:10.37,2013-03-06 01:10:00,
2013-03-05 19:15:00,64.0,42.2,30.21,North,5,11.5,11.5,45,0.00,CLR,SKC,0.00,0.0,WeatherDisplay:10.37,2013-03-06 01:15:00,
2013-03-05 19:20:00,64.0,38.5,30.21,NNW,345,13.8,13.8,39,0.00,CLR,SKC,0.00,0.0,WeatherDisplay:10.37,2013-03-06 01:20:00,
2013-03-05 19:25:00,63.9,39.1,30.21,North,5,10.4,10.4,40,0.00,CLR,SKC,0.00,0.0,WeatherDisplay:10.37,2013-03-06 01:25:00,
2013-03-05 19:30:00,63.8,39.6,30.22,North,355,11.5,11.5,41,0.00,CLR,SKC,0.00,0.0,WeatherDisplay:10.37,2013-03-06 01:30:00,
2013-03-05 19:35:00,63.7,38.3,30.22,NNE,24,11.5,11.5,39,0.00,CLR,SKC,0.00,0.0,WeatherDisplay:10.37,2013-03-06 01:35:00,
2013-03-05 19:40:00,63.6,39.5,30.22,NNE,12,6.9,6.9,41,0.00,CLR,SKC,0.00,0.0,WeatherDisplay:10.37,2013-03-06 01:40:00,
2013-03-05 19:45:00,63.4,39.9,30.22,NNW,340,11.5,11.5,42,0.00,CLR,SKC,0.00,0.0,WeatherDisplay:10.37,2013-03-06 01:45:00,
2013-03-05 19:50:00,63.4,38.0,30.22,NNE,15,10.4,10.4,39,0.00,CLR,SKC,0.00,0.0,WeatherDisplay:10.37,2013-03-06 01:50:00,
2013-03-05 19:55:00,63.4,38.0,30.23,NNE,21,6.9,6.9,39,0.00,CLR,SKC,0.00,0.0,WeatherDisplay:10.37,2013-03-06 01:55:00,
2013-03-05 20:00:00,63.4,37.3,30.23,NW,319,9.2,9.2,38,0.00,CLR,SKC,0.00,0.0,WeatherDisplay:10.37,2013-03-06 02:00:00,
2013-03-05 20:05:00,63.2,36.5,30.23,NNW,337,6.9,6.9,37,0.00,CLR,SKC,0.00,0.0,WeatherDisplay:10.37,2013-03-06 02:05:00,
2013-03-05 20:10:00,63.0,36.3,30.24,NNE,13,10.4,10.4,37,0.00,CLR,SKC,0.00,0.0,WeatherDisplay:10.37,2013-03-06 02:10:00,
2013-03-05 20:15:00,62.9,37.5,30.24,NNE,16,6.9,6.9,39,0.00,CLR,SKC,0.00,0.0,WeatherDisplay:10.37,2013-03-06 02:15:00,
2013-03-05 20:20:00,62.5,38.5,30.24,NNE,13,6.9,6.9,41,0.00,CLR,SKC,0.00,0.0,WeatherDisplay:10.37,2013-03-06 02:20:00,
2013-03-05 20:25:00,62.2,37.6,30.24,North,9,6.9,6.9,40,0.00,CLR,SKC,0.00,0.0,WeatherDisplay:10.37,2013-03-06 02:25:00,
2013-03-05 20:30:00,62.1,37.5,30.24,North,355,6.9,6.9,40,0.00,CLR,SKC,0.00,0.0,WeatherDisplay:10.37,2013-03-06 02:30:00,
2013-03-05 20:35:00,61.9,37.3,30.24,NNE,13,10.4,10.4,40,0.00,CLR,SKC,0.00,0.0,WeatherDisplay:10.37,2013-03-06 02:35:00,
2013-03-05 20:40:00,61.6,37.0,30.25,NNE,14,5.8,5.8,40,0.00,CLR,SKC,0.00,0.0,WeatherDisplay:10.37,2013-03-06 02:40:00,
2013-03-05 20:45:00,61.5,38.8,30.25,NNE,15,5.0,5.0,43,0.00,CLR,SKC,0.00,0.0,WeatherDisplay:10.37,2013-03-06 02:45:00,
2013-03-05 20:50:00,61.3,38.6,30.25,NNE,33,10.0,10.0,43,0.00,CLR,SKC,0.00,0.0,WeatherDisplay:10.37,2013-03-06 02:50:00,
2013-03-05 20:55:00,61.3,38.6,30.25,NNE,12,8.0,8.0,43,0.00,CLR,SKC,0.00,0.0,WeatherDisplay:10.37,2013-03-06 02:55:00,
2013-03-05 21:00:00,61.3,38.6,30.25,NNE,24,11.5,11.5,43,0.00,CLR,SKC,0.00,0.0,WeatherDisplay:10.37,2013-03-06 03:00:00,
2013-03-05 21:05:00,61.2,37.9,30.25,North,355,8.1,8.1,42,0.00,CLR,SKC,0.00,0.0,WeatherDisplay:10.37,2013-03-06 03:05:00,
2013-03-05 21:10:00,61.1,37.8,30.25,North,360,9.2,9.2,42,0.00,CLR,SKC,0.00,0.0,WeatherDisplay:10.37,2013-03-06 03:10:00,
2013-03-05 21:15:00,61.0,38.3,30.25,NNE,24,11.5,11.5,43,0.00,CLR,SKC,0.00,0.0,WeatherDisplay:10.37,2013-03-06 03:15:00,
2013-03-05 21:20:00,60.8,39.9,30.25,North,355,11.5,11.5,46,0.00,CLR,SKC,0.00,0.0,WeatherDisplay:10.37,2013-03-06 03:20:00,
2013-03-05 21:25:00,60.7,39.8,30.25,NNE,30,11.5,11.5,46,0.00,CLR,SKC,0.00,0.0,WeatherDisplay:10.37,2013-03-06 03:25:00,
2013-03-05 21:30:00,60.6,38.0,30.25,NNE,30,8.1,8.1,43,0.00,CLR,SKC,0.00,0.0,WeatherDisplay:10.37,2013-03-06 03:30:00,
2013-03-05 21:35:00,60.5,39.0,30.25,NNE,19,10.4,10.4,45,0.00,CLR,SKC,0.00,0.0,WeatherDisplay:10.37,2013-03-06 03:35:00,
2013-03-05 21:40:00,60.3,38.9,30.25,NNE,15,10.4,10.4,45,0.00,CLR,SKC,0.00,0.0,WeatherDisplay:10.37,2013-03-06 03:40:00,
2013-03-05 21:45:00,60.4,38.4,30.25,NE,51,10.4,10.4,44,0.00,CLR,SKC,0.00,0.0,WeatherDisplay:10.37,2013-03-06 03:45:00,
2013-03-05 21:50:00,60.4,37.8,30.25,NNE,28,9.2,9.2,43,0.00,CLR,SKC,0.00,0.0,WeatherDisplay:10.37,2013-03-06 03:50:00,
2013-03-05 21:55:00,60.4,37.2,30.26,North,5,9.2,9.2,42,0.00,CLR,SKC,0.00,0.0,WeatherDisplay:10.37,2013-03-06 03:55:00,
2013-03-05 22:00:00,60.4,36.6,30.26,NE,40,11.5,11.5,41,0.00,CLR,SKC,0.00,0.0,WeatherDisplay:10.37,2013-03-06 04:00:00,
2013-03-05 22:05:00,60.3,36.5,30.26,NNW,347,10.4,10.4,41,0.00,CLR,SKC,0.00,0.0,WeatherDisplay:10.37,2013-03-06 04:05:00,
2013-03-05 22:10:00,60.2,37.6,30.26,North,350,10.4,10.4,43,0.00,CLR,SKC,0.00,0.0,WeatherDisplay:10.37,2013-03-06 04:10:00,
2013-03-05 22:15:00,60.2,35.8,30.26,NNE,26,12.7,12.7,40,0.00,CLR,SKC,0.00,0.0,WeatherDisplay:10.37,2013-03-06 04:15:00,
2013-03-05 22:20:00,60.1,36.9,30.26,North,5,9.2,9.2,42,0.00,CLR,SKC,0.00,0.0,WeatherDisplay:10.37,2013-03-06 04:20:00,
2013-03-05 22:25:00,59.9,37.9,30.27,NNW,339,11.5,11.5,44,0.00,CLR,SKC,0.00,0.0,WeatherDisplay:10.37,2013-03-06 04:25:00,
2013-03-05 22:30:00,59.7,37.2,30.27,NNE,16,6.9,6.9,43,0.00,CLR,SKC,0.00,0.0,WeatherDisplay:10.37,2013-03-06 04:30:00,
2013-03-05 22:35:00,59.6,37.1,30.27,North,355,11.5,11.5,43,0.00,CLR,SKC,0.00,0.0,WeatherDisplay:10.37,2013-03-06 04:35:00,
2013-03-05 22:40:00,59.5,37.6,30.27,NNE,29,6.9,6.9,44,0.00,CLR,SKC,0.00,0.0,WeatherDisplay:10.37,2013-03-06 04:40:00,
2013-03-05 22:45:00,59.4,36.9,30.27,NNE,22,11.5,11.5,43,0.00,CLR,SKC,0.00,0.0,WeatherDisplay:10.37,2013-03-06 04:45:00,
2013-03-05 22:50:00,59.2,36.7,30.27,North,351,11.5,11.5,43,0.00,CLR,SKC,0.00,0.0,WeatherDisplay:10.37,2013-03-06 04:50:00,
2013-03-05 22:55:00,59.1,37.8,30.27,NE,36,10.4,10.4,45,0.00,CLR,SKC,0.00,0.0,WeatherDisplay:10.37,2013-03-06 04:55:00,
2013-03-05 23:00:00,59.1,37.2,30.27,NNE,22,11.5,11.5,44,0.00,CLR,SKC,0.00,0.0,WeatherDisplay:10.37,2013-03-06 05:00:00,
2013-03-05 23:05:00,58.9,37.0,30.27,NNW,344,13.8,13.8,44,0.00,CLR,SKC,0.00,0.0,WeatherDisplay:10.37,2013-03-06 05:05:00,
2013-03-05 23:10:00,58.8,37.5,30.27,North,355,11.5,11.5,45,0.00,CLR,SKC,0.00,0.0,WeatherDisplay:10.37,2013-03-06 05:10:00,
2013-03-05 23:15:00,58.7,36.8,30.27,NNE,24,10.4,10.4,44,0.00,CLR,SKC,0.00,0.0,WeatherDisplay:10.37,2013-03-06 05:15:00,
2013-03-05 23:20:00,58.6,36.7,30.27,NNE,26,11.5,11.5,44,0.00,CLR,SKC,0.00,0.0,WeatherDisplay:10.37,2013-03-06 05:20:00,
2013-03-05 23:25:00,58.5,36.6,30.27,NW,324,6.9,6.9,44,0.00,CLR,SKC,0.00,0.0,WeatherDisplay:10.37,2013-03-06 05:25:00,
2013-03-05 23:30:00,58.4,37.7,30.27,NNE,31,11.5,11.5,46,0.00,CLR,SKC,0.00,0.0,WeatherDisplay:10.37,2013-03-06 05:30:00,
2013-03-05 23:35:00,58.3,37.6,30.27,North,360,12.7,12.7,46,0.00,CLR,SKC,0.00,0.0,WeatherDisplay:10.37,2013-03-06 05:35:00,
2013-03-05 23:40:00,58.1,38.0,30.27,ENE,57,11.5,11.5,47,0.00,CLR,SKC,0.00,0.0,WeatherDisplay:10.37,2013-03-06 05:40:00,
2013-03-05 23:45:00,58.0,38.4,30.27,NNE,26,11.5,11.5,48,0.00,CLR,SKC,0.00,0.0,WeatherDisplay:10.37,2013-03-06 05:45:00,
2013-03-05 23:50:00,57.9,38.3,30.27,NNE,32,8.1,8.1,48,0.00,CLR,SKC,0.00,0.0,WeatherDisplay:10.37,2013-03-06 05:50:00,
2013-03-05 23:55:00,57.8,38.2,30.27,North,10,10.0,10.0,48,0.00,CLR,SKC,0.00,0.0,WeatherDisplay:10.37,2013-03-06 05:55:00,